STARLINK-2618, 48693

Orbit data source: Space-Track

STARLINK-2618, 48693 is a payload satellite owned by SpaceX/Seattle (US) in LEO that was launched on Wed, 26 May 2021 UTC via an FALCON 9 launch vehicle from the Air Force Eastern Test Range (AFETR). Payload-class satellites include a variety of spacecraft equipped with specific instruments for various scientific and technological missions. These include communications satellites like Starlink; space stations such as the ISS; scientific satellites like the Hubble; Earth observation satellites from companies like Planet Labs, Umbra, and HawkEye 360; GPS; miniature CubeSats for education and research; and military/defense satellites.

Loading next visibility...
Identifier
48693, 2021-044BH
Orbit
LEO
Country
Flag of USUS
Related business
Manufacturer
SpaceX/Seattle
Mission
Operational Commercial Communications
Bus & Motor
STARLINK, Unknown motor
Mass
260 kg wet, ~248 kg dry
Launch date (UTC)
2021-05-26 (5 years ago)
Launch vehicle
FALCON 9
Launch site
Air Force Eastern Test Range (AFETR)
Object type
Payload
Rocket body
Debris
Shape & HBR
Box + 1 Pan, 10.1 m
Radar Cross Section
13.562 m², Large (>1 m²)

Expand to show TLE details & history
Last TLE update: 2 days ago

TLE from 2 days ago
0 STARLINK-2618
1 48693U 21044BH  26171.41628983  .00002829  00000-0  10290-3 0  9995
2 48693  53.1605 317.3363 0001005  14.3403 345.7627 15.31698529280103
Epoch: 2026-06-20T09:59Z
TLE epoch observation values (Epoch: 2026-06-20T09:59:27.441Z)
Latitude
Longitude
-101.15926°
Altitude
470.978 km
Speed
7.632 km/s
True Right ascension
21h 09m 20s
True Declination
0° 00' 00"
Sunlit
Object was in full shadow at epoch
Visualization orbit readout
Latitude
Unknown
Longitude
Unknown
Altitude
Unknown
Speed
Unknown
Apparent Right ascension
Unknown
Apparent Declination
Unknown
Sunlit
N/A
Visualization observer readout
Local Sidereal Time
21:34:46
Azimuth
Unknown
Elevation
Unknown
Doppler factor
Unknown
Orbital elements
Apogee altitude
471.689 km
Perigee altitude
470.313 km
Semi-major axis
6,849.138 km
Eccentricity
0.0001
Inclination
53.1605°
RAAN
317.3363°
Arg. of periapsis
14.3403°
True anomaly
345.75987°
Mean anomaly
345.7627°
Eccentric anomaly
345.76128°
Mean motion
3.82903 °/min
Orbital period
94.02 mins
BSTAR
0.0001029
Loading maneuver chart data...
Computing Atmospheric mass density...

Documentation

Showing up to 5 results
|